Location: Unspecified
(50.7693°N, 0.0000°E)
Time: 05:09:00
(UTC+00:00)

Transit 2A - Pass Details

Date: 01 July 2019
Orbit: 597 x 962 km, 66.7° (Epoch: 21 August)

Event Time Altitude Azimuth Distance (km) Brightness Sun altitude
Rises 05:43:37 0° 322° (NW) 3,490 9.2 14.7°
Reaches altitude 10° 05:46:18 10° 327° (NNW) 2,495 8.6 15.1°
Maximum altitude 05:51:55 52° 44° (NE) 981 7.5 15.9°
Drops below altitude 10° 05:56:56 10° 121° (ESE) 2,238 9.2 16.7°
Sets 05:59:13 0° 126° (SE) 3,100 9.7 17.0°
